KB8VUC Weather Reports


Display with metric or nautical units.
time (UTC)temp
F
wind
direction
speed
MPH
gust
MPH
rain 1hr
in
rain 24hr
in
rain mn
in
humidity
%
barometer
mb
20260906114515 56 28 0.0 3.0 0.00 0.01 0.00 94 1014.2
20260906113056 55 9 1.0 3.0 0.00 0.01 0.00 94 1014.2
20260906111555 55 5 2.0 5.0 0.00 0.01 0.00 94 1014.0
20260906110036 54 26 0.0 3.0 0.00 0.01 0.00 93 1014.0
20260906104533 55 350 0.0 3.0 0.00 0.01 0.00 92 1013.9
20260906103015 55 336 1.0 3.0 0.00 0.01 0.00 92 1013.9
20260906101514 55 355 1.0 2.0 0.00 0.01 0.00 92 1013.9
20260906100114 55 14 0.0 2.0 0.00 0.01 0.00 92 1013.6
20260906094552 56 346 0.0 3.0 0.00 0.01 0.00 90 1013.6
20260906093051 57 346 1.0 3.0 0.00 0.01 0.00 87 1013.8
20260906091531 58 12 1.0 5.0 0.00 0.01 0.00 86 1013.6
20260906090027 59 43 4.0 7.0 0.00 0.01 0.00 85 1013.2
20260906084528 59 63 3.0 7.0 0.00 0.01 0.00 85 1013.2
20260906083025 59 57 2.0 6.0 0.00 0.01 0.00 84 1013.1
20260906081532 60 45 3.0 8.0 0.00 0.01 0.00 83 1013.1
20260906080019 60 43 3.0 9.0 0.00 0.01 0.00 82 1013.1
20260906074518 60 22 3.0 6.0 0.00 0.01 0.00 82 1013.0
20260906073017 60 40 3.0 8.0 0.00 0.01 0.00 82 1012.7
20260906071609 60 43 3.0 6.0 0.00 0.01 0.00 81 1012.9
20260906071500 60 40 2.0 6.0 0.00 0.01 0.00 81 1012.9
20260906070057 61 71 3.0 7.0 0.00 0.01 0.00 81 1013.0
20260906064541 61 48 3.0 6.0 0.00 0.01 0.00 81 1013.0
20260906063038 61 40 3.0 9.0 0.00 0.01 0.00 83 1013.0
20260906061523 61 32 3.0 7.0 0.00 0.01 0.00 83 1013.0
20260906060022 61 36 3.0 6.0 0.00 0.01 0.00 83 1012.9
20260906054519 62 40 3.0 7.0 0.00 0.01 0.00 82 1012.8
20260906053023 62 37 4.0 7.0 0.00 0.01 0.00 80 1012.7
20260906051513 63 64 3.0 8.0 0.00 0.01 0.00 79 1012.6
20260906050031 63 33 3.0 8.0 0.00 0.01 0.00 78 1012.6
20260906044507 64 57 4.0 8.0 0.00 0.01 0.00 78 1012.4
20260906043008 64 78 3.0 8.0 0.00 0.01 0.00 78 1012.3
20260906041544 65 59 4.0 9.0 0.00 0.01 0.00 77 1012.1
20260906040046 65 128 3.0 11.0 0.00 0.01 0.00 77 1012.0
20260906034531 66 98 4.0 11.0 0.00 0.01 0.01 78 1012.0
20260906033025 66 71 5.0 9.0 0.00 0.01 0.01 81 1012.0
20260906031601 67 36 4.0 7.0 0.00 0.01 0.01 82 1012.0
20260906030127 67 41 4.0 8.0 0.00 0.01 0.01 80 1011.8
20260906024544 68 69 4.0 9.0 0.00 0.01 0.01 80 1011.6
20260906023044 68 33 3.0 8.0 0.00 0.01 0.01 79 1011.4
20260906021555 69 51 3.0 7.0 0.00 0.01 0.01 78 1011.3
20260906020042 69 39 3.0 6.0 0.00 0.01 0.01 78 1011.2
20260906014541 69 32 3.0 6.0 0.00 0.01 0.01 78 1011.3
20260906013040 69 44 2.0 6.0 0.00 0.01 0.01 78 1011.2
20260906011538 70 44 3.0 6.0 0.00 0.01 0.01 78 1010.9
20260906010036 71 47 2.0 6.0 0.00 0.01 0.01 78 1010.7
20260906004516 71 30 3.0 6.0 0.00 0.01 0.01 81 1010.5
20260906003016 71 17 1.0 3.0 0.00 0.01 0.01 85 1010.4
20260906001505 71 17 0.0 3.0 0.00 0.01 0.01 84 1010.5
20260906000003 72 17 0.0 2.0 0.00 0.01 0.01 83 1010.2
20260905234502 74 17 0.0 2.0 0.00 0.01 0.01 80 1010.3
20260905233001 74 32 1.0 3.0 0.00 0.01 0.01 79 1010.2
20260905231601 74 38 1.0 3.0 0.00 0.01 0.01 78 1010.2
20260905230100 74 20 1.0 3.0 0.00 0.01 0.01 78 1010.2
20260905224606 74 36 2.0 5.0 0.00 0.01 0.01 78 1010.0
20260905223057 74 31 1.0 5.0 0.00 0.01 0.01 79 1010.0
20260905221540 74 46 3.0 6.0 0.00 0.01 0.01 79 1009.7
20260905220040 74 60 3.0 8.0 0.00 0.01 0.01 80 1009.6
20260905214524 74 36 3.0 8.0 0.00 0.01 0.01 82 1009.7
20260905213023 74 36 1.0 6.0 0.00 0.01 0.01 84 1009.7
20260905211520 74 32 2.0 5.0 0.00 0.01 0.01 85 1009.6
20260905210016 73 63 3.0 5.0 0.00 0.01 0.01 86 1009.5
20260905204513 73 66 2.0 6.0 0.00 0.01 0.01 88 1009.7
20260905203011 72 48 0.0 3.0 0.00 0.01 0.01 93 1009.9
20260905201507 70 51 0.0 3.0 0.01 0.01 0.01 93 1009.9
20260905200008 70 37 1.0 4.0 0.01 0.01 0.01 93 1010.0
20260905194552 70 37 1.0 5.0 0.01 0.01 0.01 94 1010.0
20260905193046 69 32 3.0 8.0 0.01 0.01 0.01 93 1010.2
20260905191529 69 355 5.0 11.0 0.00 0.00 0.00 92 1010.1
20260905190028 70 30 4.0 12.0 0.00 0.00 0.00 90 1010.2
20260905184515 71 360 3.0 10.0 0.00 0.00 0.00 89 1010.3
20260905183012 70 34 3.0 6.0 0.00 0.00 0.00 89 1010.4
20260905181651 69 63 3.0 7.0 0.00 0.00 0.00 90 1010.3
20260905180052 69 39 4.0 8.0 0.00 0.00 0.00 89 1010.3
20260905174540 69 23 2.0 6.0 0.00 0.00 0.00 89 1010.2
20260905173032 69 57 3.0 10.0 0.00 0.00 0.00 89 1010.3
20260905171521 69 59 4.0 9.0 0.00 0.00 0.00 90 1010.3
20260905170021 68 40 3.0 7.0 0.00 0.00 0.00 91 1010.3
20260905164521 68 27 3.0 9.0 0.00 0.03 0.00 90 1010.3
20260905163020 69 28 3.0 11.0 0.00 0.03 0.00 90 1010.4
20260905161518 69 22 4.0 8.0 0.00 0.03 0.00 90 1010.2
20260905160031 70 48 4.0 8.0 0.00 0.03 0.00 89 1010.1
20260905154516 69 36 4.0 8.0 0.00 0.06 0.00 89 1010.1
20260905153015 68 53 4.0 9.0 0.00 0.06 0.00 90 1010.0
20260905151558 68 61 5.0 9.0 0.00 0.06 0.00 91 1009.9
20260905150056 68 44 6.0 11.0 0.00 0.06 0.00 91 1009.9
20260905144555 68 55 4.0 7.0 0.00 0.11 0.00 92 1009.8
20260905143054 67 5 5.0 9.0 0.00 0.11 0.00 93 1009.6
20260905141610 67 72 4.0 7.0 0.00 0.11 0.00 93 1009.6
20260905140100 67 53 4.0 10.0 0.00 0.11 0.00 93 1009.6
20260905134653 67 69 3.0 8.0 0.00 0.28 0.00 93 1009.6
20260905133055 67 41 2.0 6.0 0.00 0.28 0.00 94 1009.4
20260905131547 67 40 6.0 11.0 0.00 0.28 0.00 94 1009.3
20260905130028 67 28 3.0 8.0 0.00 0.28 0.00 95 1009.3
20260905124508 67 5 2.0 6.0 0.00 0.42 0.00 95 1009.1
20260905123006 68 42 4.0 8.0 0.00 0.42 0.00 95 1008.8
20260905121605 68 61 3.0 6.0 0.00 0.42 0.00 95 1008.9
20260905120046 68 66 3.0 7.0 0.00 0.42 0.00 95 1008.7